Alamosa, CO

7:31 PM MDT on August 19, 2019 (GMT -0600)
San Luis Valley Regional / Bergman Field

Weather History for KALS - June, 2019

Change the Weather History Date:

Sunday, June 2, 2019

  Actual Average Record
Temperature  
Mean Temperature 59 °F 56 °F  
Max Temperature 76 °F 75 °F 84 °F (1997)
Min Temperature 41 °F 37 °F 24 °F (1990)
Degree Days  
Heating Degree Days 6 9  
Month to date heating degree days 13 18  
Since 1 June heating degree days 13 18  
Since 1 July heating degree days 8438 8444  
Cooling Degree Days 0 0  
Month to date cooling degree days 0 0  
Year to date cooling degree days 0 0  
Since 1 June cooling degree days 0 0  
Growing Degree Days 8 (Base 50)    
Moisture  
Dew Point 39 °F    
Average Humidity 51    
Maximum Humidity 83    
Minimum Humidity 19    
Precipitation  
Precipitation 0.14 in 0.01 in 0.37 in (1967)
Month to date precipitation 0.14 0.03  
Year to date precipitation 4.83 2.25  
Snow  
Snow 0.00 in 0.00 in T in (1967)
Month to date snowfall 0.0 0.0  
Since 1 June snowfall 0.0 0.0  
Since 1 July snowfall 54.9 27.6  
Snow Depth 0.00 in    
Sea Level Pressure  
Sea Level Pressure 29.97 in    
Wind  
Wind Speed 10 mph (South)    
Max Wind Speed 32 mph    
Max Gust Speed 47 mph    
Visibility 10 miles    
Events Rain , Thunderstorm    
T = Trace of Precipitation, MM = Missing Value Source: NWS Daily Summary

Daily Weather History Graph

Daily Weather History Graph

Search for Another Location

Airport or City:

Astronomy

Jun. 02, 2019 Rise Set
Actual Time 5:43 AM MDT 8:19 PM MDT
Civil Twilight 5:13 AM MDT 8:49 PM MDT
Nautical Twilight 4:35 AM MDT 9:27 PM MDT
Astronomical Twilight 3:53 AM MDT 10:10 PM MDT
Moon 5:23 AM MDT (6/2) 7:43 PM MDT (6/2)
Length of Visible Light 15h 36m
Length of Day
14h 35m
Waning Crescent, 1% of the Moon is Illuminated
Jun 2
Waning Crescent
Jun 3
New
Jun 10
First Quarter
Jun 17
Full
Jun 25
Last Quarter

Hourly Weather History & Observations

Time (MDT) Temp. Windchill Dew Point Humidity Pressure Visibility Wind Dir Wind Speed Gust Speed Precip Events Conditions
12:52 AM 45.0 °F 40.6 °F 37.0 °F 74% 29.94 in 10.0 mi ESE 8.1 mph - N/A   Clear
1:52 AM 45.0 °F 40.1 °F 37.9 °F 76% 29.93 in 10.0 mi SE 9.2 mph - N/A   Clear
2:52 AM 44.1 °F 40.1 °F 37.9 °F 79% 29.94 in 10.0 mi SW 6.9 mph - N/A   Clear
3:52 AM 46.0 °F 43.1 °F 39.0 °F 76% 29.94 in 10.0 mi South 5.8 mph - N/A   Partly Cloudy
4:52 AM 45.0 °F 43.5 °F 39.9 °F 82% 29.96 in 10.0 mi ESE 3.5 mph - N/A   Partly Cloudy
5:52 AM 42.1 °F 38.4 °F 37.9 °F 85% 29.99 in 10.0 mi ENE 5.8 mph - N/A   Clear
6:52 AM 45.0 °F - 39.0 °F 80% 30.01 in 10.0 mi Calm Calm - N/A   Clear
7:52 AM 51.1 °F - 37.9 °F 61% 29.99 in 10.0 mi South 4.6 mph - N/A   Clear
8:52 AM 55.9 °F - 39.0 °F 53% 29.99 in 10.0 mi Calm Calm - N/A   Clear
9:52 AM 62.1 °F - 39.9 °F 44% 29.97 in 10.0 mi SSE 6.9 mph - N/A   Clear
10:52 AM 64.0 °F - 42.1 °F 45% 29.94 in 10.0 mi Variable 3.5 mph - N/A   Clear
11:52 AM 71.1 °F - 43.0 °F 36% 29.91 in 10.0 mi SSE 16.1 mph 24.2 mph N/A   Partly Cloudy
12:52 PM 73.9 °F - 35.1 °F 24% 29.87 in 10.0 mi South 23.0 mph 33.4 mph N/A   Clear
1:52 PM 75.0 °F - 33.1 °F 22% 29.86 in 10.0 mi South 24.2 mph 36.8 mph 0.00 in   Scattered Clouds
2:52 PM 72.0 °F - 28.9 °F 20% 29.88 in 10.0 mi SW 21.9 mph 32.2 mph N/A   Clear
3:52 PM 73.9 °F - 28.9 °F 19% 29.85 in 10.0 mi WSW 20.7 mph 32.2 mph N/A   Clear
4:04 PM 73.0 °F - 28.9 °F 20% 30.10 in 10.0 mi West 20.7 mph 29.9 mph N/A Thunderstorm Partly Cloudy
4:12 PM 68.0 °F - 36.0 °F 31% 30.12 in 6.0 mi SSW 16.1 mph 25.3 mph 0.00 in Rain , Thunderstorm Light Thunderstorms and Rain
4:52 PM 64.0 °F - 44.1 °F 48% 29.91 in 10.0 mi NW 13.8 mph 19.6 mph 0.06 in Thunderstorm Overcast
5:02 PM 64.0 °F - 43.0 °F 46% 30.12 in 10.0 mi North 11.5 mph - N/A   Mostly Cloudy
5:15 PM 63.0 °F - 41.0 °F 45% 30.11 in 10.0 mi NNE 6.9 mph - N/A Thunderstorm Mostly Cloudy
5:25 PM 60.1 °F - 42.1 °F 51% 30.12 in 4.0 mi NNE 8.1 mph - 0.04 in Rain , Thunderstorm Thunderstorms and Rain
5:39 PM 61.0 °F - 42.1 °F 50% 30.10 in 10.0 mi NE 12.7 mph - 0.07 in Rain Light Rain
5:52 PM 61.0 °F - 48.0 °F 62% 29.91 in 9.0 mi North 9.2 mph - 0.08 in Rain Light Rain
6:52 PM 63.0 °F - 51.1 °F 65% 29.89 in 10.0 mi Calm Calm - 0.00 in   Clear
7:52 PM 60.1 °F - 48.0 °F 64% 29.91 in 10.0 mi SSW 5.8 mph - N/A   Partly Cloudy
8:30 PM 60.1 °F - 35.1 °F 39% 30.16 in 10.0 mi SSW 13.8 mph 47.2 mph 0.00 in Rain Light Rain
8:52 PM 57.9 °F - 37.9 °F 47% 29.92 in 10.0 mi SW 23.0 mph 32.2 mph 0.00 in   Overcast
9:52 PM 51.1 °F - 39.0 °F 63% 29.91 in 10.0 mi SW 8.1 mph - N/A   Clear
10:52 PM 48.0 °F - 39.9 °F 74% 29.91 in 10.0 mi SW 8.1 mph - N/A   Clear
11:52 PM 48.0 °F - 39.0 °F 71% 29.92 in 10.0 mi ESE 12.7 mph - N/A   Clear